Location: Chervonnoye
(48.6000°N, 34.4000°E)
Time: 13:07:51
(UTC+00:00)

Cosmos 389 Rocket - Pass Details

Date: 23 November 2020
Orbit: 442 x 473 km, 81.1° (Epoch: 26 January)

Event Time Altitude Azimuth Distance (km) Brightness Sun altitude
Rises 15:41:18 0° 187° (S) 2,441 6.4 -17.2°
Reaches altitude 10° 15:43:21 10° 186° (S) 1,570 5.3 -17.6°
Maximum altitude 15:46:46 77° 100° (E) 464 2.2 -18.1°
Enters shadow 15:47:57 38° 21° (NNE) 698 3.1 -18.3°
